Location: Unspecified
(35.6961°N, 0.0000°E)
Time: 21:23:21
(UTC+00:00)

Explorer 11/Cluster Stage 4 - Pass Details

Date: 28 May 2019
Orbit: 467 x 1260 km, 28.8° (Epoch: 19 June)

Event Time Altitude Azimuth Distance (km) Brightness Sun altitude
Rises 22:53:14 0° 215° (SW) 4,135 - -30.8°
Reaches altitude 10° 22:57:10 10° 199° (SSW) 3,090 - -31.0°
Maximum altitude 23:02:17 19° 157° (SSE) 2,323 - -31.3°
Drops below altitude 10° 23:06:55 10° 115° (ESE) 2,761 - -31.5°
Sets 23:10:10 0° 98° (E) 3,561 - -31.7°
